Вернуться в каталог

VANGUARD DEB

АктивенUNKNOWN
NORAD 69999·DEBRIS·🇺🇸 United States

Запущен Mar 17, 1958 с Cape Canaveral Space Force Station

Loading…

Ближайшие Пролёты (ближайшие 24 часа)

TLE

УстаревающийSource: Space-Track

Эпоха: Aug 21, 2026, 22:56 UTC

1 69999U 58002D   26233.95621373 -.00000098  00000-0 -11055-3 0  9993
2 69999  34.2389 185.6241 1484084 248.2143  95.4350 11.62370387194450

Отслеживайте VANGUARD DEB в реальном времени с AllMySat

Download on the App Store